[[{"header":{"parameterUnit":"m.s-1","parameterCategory":1,"la1":30.2991,"la2":30.254,"lo1":-89.0895,"lo2":-89.0444,"dy":0.0017,"dx":0.0017,"nx":28,"ny":28,"refTime":"2023-08-13T21:00:00:Z","depth":0,"parameterNumber":2,"parameterNumberName":"U-component_of_WINDS"},"data":[0,0,0,0,0,0,0,0,0,0,0,0,0,0,0,0,0,0,0,0,0,0,0,0,0,0,0,0,0,0,0,0,0,0,0,0,0,0,0,0,0,0,0,0,0,0,0,0,0,0,0,0,0,0,0,0,0,0,0.748,0.7482,0,0.7636,0.7638,0.764,0.7719,0.7719,0.7719,0.7719,0.7878,0.7882,0.7886,0,0,0,0,0,0,0,0,0,0,0,0,0,0.7249,0.7253,0.748,0.7482,0.7484,0.7636,0.7638,0.764,0.7719,0.7719,0.7719,0.7719,0.7877,0.7881,0.7887,0,0,0,0,0,0,0,0,0,0,0,0,0,0.7371,0.7254,0.748,0.7542,0.7549,0.7636,0.7638,0.7641,0.7719,0.7719,0.7719,0.7719,0.7875,0.7881,0.7887,0.7925,0,0,0.7906,0.7909,0,0,0,0,0,0,0,0,0.7364,0.738,0.7531,0.7537,0.7546,0.7658,0.7615,0.7736,0.7719,0.7654,0.7719,0.7719,0.7805,0.7817,0.7846,0.7932,0.7939,0.7907,0.7911,0.7914,0.7915,0,0,0,0,0,0,0,0.7356,0.7374,0.7542,0.7533,0.7542,0.7561,0.7579,0.7638,0.7727,0.766,0.7666,0.7683,0.7809,0.784,0.785,0.7941,0.7907,0.7912,0.7916,0.7919,0.8066,0.8066,0,0,0,0,0,0,0.7337,0.7366,0.7537,0.7547,0.7453,0.7565,0.7585,0.7622,0.7727,0.7743,0.7683,0.7686,0.7829,0.7843,0.7856,0.7907,0.7913,0.7919,0.7923,0.8066,0.8066,0.8066,0,0,0,0,0,0,0.7332,0.7352,0.7531,0.7458,0.7482,0.7569,0.761,0.7625,0.7656,0.7744,0.776,0.7698,0.7829,0.7847,0.7907,0.7914,0.7922,0.7928,0.8066,0.8066,0.8066,0.8009,0,0,0,0,0,0,0.7325,0.735,0.7365,0.7458,0.7486,0.7579,0.7611,0.7628,0.7667,0.7672,0.7763,0.7778,0.7831,0.7897,0.7913,0.7922,0.7933,0.8066,0.8066,0.8066,0.801,0.8007,0.8004,0,0,0,0,0,0.7317,0.7342,0.7365,0.7386,0.7507,0.758,0.7596,0.7656,0.7667,0.7683,0.774,0.7775,0.791,0.7903,0.7922,0.7932,0.8066,0.8066,0.8066,0.8012,0.8008,0.8004,0,0,0,0,0,0,0.7248,0.7356,0.7382,0.7439,0.7499,0.7593,0.7615,0.765,0.7708,0.7711,0.7784,0.7803,0.7857,0.7901,0.7891,0.7974,0.7991,0.7995,0.7944,0.794,0.7937,0.7925,0.7938,0,0,0,0,0,0.7239,0.7289,0.7381,0.7422,0.7451,0.7527,0.7561,0.7603,0.7668,0.7694,0.7755,0.7817,0.7874,0.7909,0.7966,0.8017,0.8038,0.8034,0.8031,0.8027,0.803,0.806,0.8059,0.8067,0.8067,0.8067,0,0,0.7222,0.7287,0.7314,0.741,0.7462,0.7511,0.7548,0.76,0.7638,0.7702,0.7762,0.7809,0.7883,0.7938,0.7966,0.7977,0.8032,0.8028,0.8025,0.8029,0.806,0.8059,0.8059,0.8068,0.8068,0.8068,0,0,0.7216,0.727,0.731,0.7362,0.744,0.749,0.75,0.7588,0.7621,0.7683,0.7732,0.7778,0.7874,0.7925,0.7963,0.7976,0.8011,0.7992,0.7975,0.8004,0.8003,0.8003,0.8007,0.8008,0.7995,0.7994,0.7994,0,0.7184,0.7262,0.7326,0.7375,0.7416,0.7476,0.7517,0.7564,0.7656,0.7682,0.7693,0.7815,0.7869,0.7937,0.794,0.7969,0.7982,0.7982,0.7998,0.7998,0.7999,0.8004,0.8006,0.7992,0.7992,0.7992,0.7993,0,0.7219,0.7272,0.7295,0.7383,0.7426,0.7471,0.7542,0.7577,0.7615,0.7664,0.7726,0.7793,0.7865,0.7884,0.7921,0.7957,0.7961,0.7984,0.8003,0.7994,0.8,0.8003,0.7988,0.7989,0.799,0.799,0,0,0.7174,0.7297,0.7305,0.7345,0.7436,0.7478,0.7525,0.7595,0.7624,0.7686,0.7727,0.7806,0.7828,0.7871,0.7915,0.7939,0.7945,0.796,0.7962,0.7954,0.7989,0.7971,0.7972,0.7969,0.7969,0.797,0.7983,0,0.7181,0.7269,0.7328,0.7392,0.7442,0.75,0.7541,0.7601,0.7648,0.7697,0.7749,0.7804,0.7829,0.7855,0.7882,0.7938,0.7953,0.7939,0.8007,0.8009,0.7987,0.7976,0.7957,0.7966,0.7985,0.7986,0.7986,0,0.72,0.726,0.733,0.7415,0.7438,0.7474,0.7543,0.7589,0.7657,0.769,0.7738,0.7782,0.7834,0.7848,0.792,0.7909,0.7941,0.7973,0.7974,0.7983,0.7997,0.7984,0.797,0.7971,0.7991,0.799,0.799,0,0.716,0.7258,0.7313,0.7346,0.7446,0.747,0.7513,0.7582,0.762,0.768,0.7706,0.7771,0.7807,0.7856,0.7916,0.7921,0.7982,0.8001,0.8011,0.8009,0.8021,0.8019,0.8012,0.8041,0.8041,0.8041,0.8041,0,0.7161,0.7201,0.7296,0.7329,0.7376,0.7443,0.7487,0.7535,0.7596,0.7639,0.7694,0.7733,0.7811,0.7859,0.7907,0.7959,0.7975,0.8003,0.8015,0.7998,0.7994,0.802,0.802,0.8042,0.8042,0.8041,0.8041,0,0.7124,0.7189,0.7252,0.7342,0.7366,0.7396,0.7473,0.7508,0.7558,0.7612,0.7629,0.7707,0.7767,0.7833,0.7915,0.7947,0.7997,0.8014,0.7973,0.798,0.7986,0.7984,0.7995,0.7999,0.8024,0.8024,0.8024,0,0.712,0.7152,0.7246,0.7279,0.7321,0.7374,0.7413,0.7481,0.752,0.7601,0.7625,0.7689,0.7744,0.7838,0.7902,0.7965,0.7984,0.7984,0.7994,0.7976,0.7984,0.7981,0.7985,0.798,0.7979,0.7979,0.7979,0,0.7106,0.7137,0.7192,0.7259,0.7304,0.736,0.7417,0.7441,0.752,0.7561,0.7624,0.7666,0.775,0.7813,0.7884,0.7928,0.7966,0.7975,0.798,0.7963,0.7938,0.7952,0.7964,0.7974,0.7975,0.7975,0.7975,0.7975,0.7086,0.7117,0.7189,0.7248,0.7299,0.7351,0.7388,0.7443,0.7496,0.757,0.7607,0.7669,0.7737,0.7836,0.7879,0.7928,0.794,0.7948,0.795,0.7951,0.7946,0.793,0.7941,0.7941,0.7942,0.7942,0.7942,0,0.7075,0.7124,0.7178,0.7257,0.7304,0.7336,0.7401,0.7438,0.7492,0.7553,0.7606,0.7677,0.7739,0.7808,0.7873,0.7899,0.7919,0.7914,0.7913,0.7923,0.7932,0.792,0.7898,0.7898,0.7898,0.7898,0.7898,0.7898,0.7075,0.713,0.7169,0.7249,0.7298,0.7359,0.7394,0.7442,0.7491,0.7568,0.762,0.7664,0.7728,0.7799,0.7857,0.7876,0.7897,0.7887,0.7911,0.7918,0.7922,0.7925,0.7915,0.7892,0.7892,0.7898,0.7898,0.7898]},{"header":{"parameterUnit":"m.s-1","parameterCategory":1,"la1":30.2991,"la2":30.254,"lo1":-89.0895,"lo2":-89.0444,"dy":0.0017,"dx":0.0017,"nx":28,"ny":28,"refTime":"2023-08-13T21:00:00:Z","depth":0,"parameterNumber":3,"parameterNumberName":"V-component_of_WINDS"},"data":[0,0,0,0,0,0,0,0,0,0,0,0,0,0,0,0,0,0,0,0,0,0,0,0,0,0,0,0,0,0,0,0,0,0,0,0,0,0,0,0,0,0,0,0,0,0,0,0,0,0,0,0,0,0,0,0,0,0,4.3315,4.3314,0,4.3255,4.3254,4.3253,4.32,4.3199,4.3199,4.3198,4.3131,4.3129,4.3128,0,0,0,0,0,0,0,0,0,0,0,0,0,4.3379,4.3379,4.3315,4.3314,4.3314,4.3255,4.3254,4.3253,4.32,4.3199,4.3198,4.3198,4.3131,4.3129,4.3128,0,0,0,0,0,0,0,0,0,0,0,0,0,4.3338,4.3378,4.3315,4.328,4.3276,4.3255,4.3254,4.3253,4.32,4.3199,4.3198,4.3197,4.3131,4.313,4.3128,4.3135,0,0,4.3122,4.3121,0,0,0,0,0,0,0,0,4.3341,4.3336,4.3286,4.3282,4.3278,4.3234,4.3252,4.3213,4.32,4.3229,4.3198,4.3197,4.3165,4.3161,4.3151,4.3131,4.3129,4.3122,4.3121,4.312,4.312,0,0,0,0,0,0,0,4.3344,4.3338,4.3291,4.3285,4.3281,4.3266,4.3259,4.3244,4.3203,4.3226,4.3222,4.3216,4.3163,4.3153,4.3149,4.3128,4.3122,4.312,4.3119,4.3119,4.311,4.3111,0,0,0,0,0,0,4.3353,4.3341,4.3293,4.3289,4.3308,4.3265,4.3258,4.3249,4.3203,4.3195,4.3217,4.3214,4.3157,4.3151,4.3147,4.3151,4.312,4.3118,4.3117,4.3109,4.311,4.3111,0,0,0,0,0,0,4.3354,4.3349,4.3295,4.3314,4.3306,4.3265,4.3256,4.3248,4.3238,4.3196,4.3188,4.3215,4.3156,4.3149,4.3138,4.3148,4.3118,4.3116,4.3108,4.3109,4.311,4.3161,0,0,0,0,0,0,4.3356,4.335,4.3353,4.3315,4.3305,4.329,4.3256,4.3248,4.3236,4.3231,4.3192,4.3184,4.3154,4.3141,4.3137,4.3145,4.3114,4.3107,4.3109,4.311,4.3158,4.3164,4.3169,0,0,0,0,0,4.3359,4.3369,4.3354,4.3348,4.3309,4.3291,4.3285,4.3252,4.3237,4.3239,4.3212,4.3185,4.3148,4.3141,4.3135,4.3143,4.3106,4.3108,4.311,4.3156,4.3163,4.3169,0,0,0,0,0,0,4.3408,4.3363,4.3346,4.3344,4.3322,4.3282,4.3284,4.3261,4.3241,4.3237,4.3196,4.3187,4.3181,4.3161,4.3153,4.3147,4.3123,4.3124,4.316,4.3167,4.3172,4.3176,4.3113,0,0,0,0,0,4.3419,4.3409,4.337,4.3372,4.3362,4.3325,4.3315,4.3292,4.3267,4.3257,4.3228,4.3203,4.3186,4.3175,4.3157,4.3155,4.3145,4.3158,4.3163,4.3168,4.3169,4.3166,4.3171,4.3117,4.3117,4.3117,0,0,4.344,4.3415,4.3411,4.3381,4.3361,4.335,4.3317,4.3307,4.3299,4.3254,4.3243,4.3222,4.3191,4.3185,4.318,4.3167,4.3181,4.317,4.3174,4.3172,4.3168,4.3173,4.3178,4.3119,4.3118,4.3118,0,0,4.3474,4.3454,4.3454,4.3435,4.3406,4.3381,4.3381,4.3345,4.333,4.3318,4.3285,4.3273,4.3244,4.3223,4.3209,4.3236,4.321,4.3231,4.3258,4.3255,4.3259,4.3263,4.3272,4.3276,4.3232,4.3232,4.3232,0,4.3504,4.3489,4.3456,4.3449,4.3436,4.3398,4.3396,4.3378,4.3344,4.3336,4.3322,4.3285,4.3262,4.325,4.3257,4.3247,4.3244,4.3235,4.3262,4.3265,4.3268,4.3276,4.3279,4.3235,4.3234,4.3234,4.3234,0,4.3527,4.3517,4.3519,4.3489,4.3477,4.3472,4.3437,4.3429,4.3407,4.3383,4.3371,4.3342,4.3317,4.3312,4.329,4.3297,4.329,4.327,4.3245,4.3276,4.3283,4.3286,4.3238,4.3237,4.3237,4.3236,0,0,4.3589,4.3542,4.3544,4.3529,4.3495,4.3485,4.3479,4.3456,4.3449,4.3427,4.3419,4.3396,4.3377,4.3361,4.3336,4.3334,4.3356,4.3313,4.3312,4.3322,4.3362,4.3377,4.3382,4.334,4.334,4.334,4.3364,0,4.3617,4.3605,4.3575,4.3571,4.3561,4.3525,4.3518,4.3496,4.3474,4.346,4.3435,4.3419,4.3396,4.3386,4.3382,4.3355,4.3364,4.3352,4.333,4.333,4.3339,4.3385,4.3401,4.3425,4.3367,4.3367,4.3368,0,4.3648,4.363,4.3626,4.3592,4.3587,4.3582,4.3559,4.3547,4.352,4.3504,4.3487,4.3459,4.3449,4.3427,4.3411,4.3404,4.3393,4.3378,4.3378,4.3374,4.3351,4.3382,4.3432,4.3436,4.3372,4.3371,4.3371,0,4.3694,4.3668,4.3662,4.3651,4.3612,4.361,4.3593,4.3565,4.3553,4.3532,4.3524,4.3502,4.3489,4.3472,4.3439,4.3426,4.3426,4.3401,4.3411,4.3412,4.3412,4.3412,4.3461,4.3406,4.3406,4.3406,4.3406,0,4.3728,4.3727,4.3683,4.3679,4.3676,4.3641,4.3639,4.3618,4.3594,4.3584,4.3551,4.3542,4.3499,4.3485,4.3459,4.3449,4.3444,4.3429,4.3422,4.3432,4.3434,4.3424,4.3421,4.3407,4.3407,4.3406,4.3406,0,4.3778,4.3749,4.374,4.3704,4.3695,4.3694,4.3662,4.3657,4.3633,4.3621,4.3616,4.3578,4.356,4.3526,4.3497,4.3479,4.3475,4.3463,4.3485,4.3481,4.3492,4.3491,4.3535,4.3539,4.3483,4.3483,4.3484,0,4.3802,4.38,4.3765,4.3757,4.3742,4.3729,4.3718,4.3683,4.3672,4.3642,4.3639,4.3619,4.3601,4.3573,4.3542,4.352,4.3506,4.3523,4.3503,4.3513,4.3506,4.3507,4.3506,4.3528,4.3529,4.3529,4.353,0,4.3847,4.3832,4.3818,4.3799,4.3786,4.3769,4.3749,4.3745,4.3705,4.3694,4.3676,4.3663,4.3634,4.3614,4.3588,4.3568,4.3542,4.3537,4.3538,4.3548,4.356,4.3553,4.3497,4.3536,4.3535,4.3535,4.3534,4.3534,4.3884,4.3881,4.3855,4.384,4.3823,4.3806,4.3799,4.3775,4.376,4.3736,4.3716,4.3699,4.3671,4.3634,4.3616,4.3601,4.3589,4.359,4.359,4.3591,4.3595,4.3563,4.3596,4.3596,4.3595,4.3595,4.3595,0,4.3926,4.3909,4.3896,4.387,4.3858,4.3837,4.3815,4.3806,4.3792,4.377,4.3753,4.3732,4.3712,4.368,4.3657,4.3652,4.3639,4.3647,4.3647,4.3642,4.3608,4.3609,4.3657,4.3657,4.3657,4.3657,4.3657,4.3657,4.3947,4.3941,4.3924,4.3908,4.389,4.3875,4.3864,4.3847,4.3829,4.3808,4.3793,4.3772,4.3745,4.372,4.3701,4.3691,4.3684,4.3696,4.3683,4.3651,4.3645,4.3639,4.364,4.3694,4.3695,4.3718,4.3719,4.3719]}]]